Previsão horária em Cayo Levisa

Hoje, 27 Julho, Terça-feira

Tempo Temperatura Precipitação Vento Pressão Humidade
00:00 +31°C° 0 mm 3 m/s 761 mmHg 65%
01:00 +31°C° 0 mm 3 m/s 761 mmHg 66%
02:00 +31°C° 0 mm 2 m/s 760 mmHg 66%
03:00 +31°C° 0 mm 2 m/s 760 mmHg 65%
04:00 +31°C° 0 mm 2 m/s 760 mmHg 65%
05:00 +31°C° 0 mm 2 m/s 760 mmHg 66%
06:00 +31°C° 0 mm 3 m/s 761 mmHg 66%
07:00 +31°C° 0 mm 3 m/s 761 mmHg 67%
08:00 +31°C° 0 mm 3 m/s 761 mmHg 67%
09:00 +31°C° 0 mm 3 m/s 762 mmHg 68%
10:00 +31°C° 0 mm 3 m/s 762 mmHg 68%
11:00 +31°C° 0 mm 3 m/s 762 mmHg 67%
12:00 +31°C° 0 mm 2 m/s 762 mmHg 67%
13:00 +31°C° 0 mm 2 m/s 762 mmHg 66%
14:00 +31°C° 0 mm 2 m/s 762 mmHg 66%
15:00 +31°C° 0 mm 2 m/s 761 mmHg 66%
16:00 +31°C° 0 mm 2 m/s 761 mmHg 66%
17:00 +31°C° 0 mm 2 m/s 761 mmHg 66%
18:00 +31°C° 0 mm 2 m/s 761 mmHg 67%
19:00 +31°C° 0 mm 3 m/s 761 mmHg 68%
20:00 +31°C° 0 mm 3 m/s 762 mmHg 69%
21:00 +31°C° 0 mm 3 m/s 762 mmHg 69%
22:00 +31°C° 0 mm 3 m/s 762 mmHg 70%
23:00 +31°C° 0.4 mm 3 m/s 762 mmHg 71%

Amanhã, 28 Julho, Quarta-feira

Tempo Temperatura Precipitação Vento Pressão Humidade
00:00 +31°C° 0.4 mm 3 m/s 762 mmHg 71%
01:00 +31°C° 0.4 mm 3 m/s 761 mmHg 71%
02:00 +31°C° 0.1 mm 3 m/s 761 mmHg 70%
03:00 +31°C° 0.1 mm 3 m/s 761 mmHg 69%
04:00 +31°C° 0.1 mm 3 m/s 760 mmHg 68%
05:00 +31°C° 0 mm 3 m/s 761 mmHg 68%
06:00 +31°C° 0 mm 3 m/s 761 mmHg 68%
07:00 +31°C° 0 mm 3 m/s 761 mmHg 68%
08:00 +31°C° 0 mm 3 m/s 762 mmHg 69%
09:00 +32°C° 0 mm 4 m/s 762 mmHg 71%
10:00 +32°C° 0 mm 4 m/s 762 mmHg 72%
11:00 +32°C° 0 mm 4 m/s 762 mmHg 72%
12:00 +31°C° 0 mm 3 m/s 762 mmHg 71%
13:00 +31°C° 0 mm 3 m/s 762 mmHg 71%
14:00 +31°C° 0 mm 2 m/s 761 mmHg 70%
15:00 +31°C° 0 mm 2 m/s 761 mmHg 69%
16:00 +32°C° 0 mm 2 m/s 760 mmHg 68%
17:00 +31°C° 0.6 mm 2 m/s 760 mmHg 69%
18:00 +31°C° 0.6 mm 2 m/s 760 mmHg 69%
19:00 +31°C° 0.6 mm 2 m/s 760 mmHg 70%
20:00 +31°C° 1 mm 3 m/s 761 mmHg 70%
21:00 +32°C° 1 mm 4 m/s 761 mmHg 70%
22:00 +32°C° 1 mm 5 m/s 761 mmHg 70%
23:00 +32°C° 0 mm 5 m/s 761 mmHg 71%

Depois de amanhã, 29 Julho, Quinta-feira

Tempo Temperatura Precipitação Vento Pressão Humidade
00:00 +32°C° 0 mm 5 m/s 761 mmHg 72%
01:00 +32°C° 0 mm 4 m/s 760 mmHg 73%
02:00 +32°C° 0.2 mm 5 m/s 760 mmHg 73%
03:00 +32°C° 0.2 mm 5 m/s 760 mmHg 74%
04:00 +32°C° 0.2 mm 5 m/s 760 mmHg 74%
05:00 +32°C° 0 mm 5 m/s 760 mmHg 74%
06:00 +32°C° 0 mm 6 m/s 760 mmHg 74%
07:00 +32°C° 0 mm 6 m/s 761 mmHg 73%
08:00 +32°C° 0 mm 6 m/s 761 mmHg 74%
09:00 +32°C° 0 mm 6 m/s 761 mmHg 74%
10:00 +32°C° 0 mm 6 m/s 762 mmHg 74%
11:00 +32°C° 0.1 mm 6 m/s 761 mmHg 74%
12:00 +32°C° 0.1 mm 6 m/s 761 mmHg 73%
13:00 +32°C° 0.1 mm 6 m/s 761 mmHg 73%
14:00 +32°C° 0 mm 6 m/s 761 mmHg 71%
15:00 +33°C° 0 mm 5 m/s 761 mmHg 69%
16:00 +33°C° 0 mm 5 m/s 760 mmHg 66%
17:00 +33°C° 0 mm 4 m/s 760 mmHg 66%
18:00 +33°C° 0 mm 4 m/s 760 mmHg 65%
19:00 +33°C° 0 mm 3 m/s 760 mmHg 65%
20:00 +32°C° 0.4 mm 4 m/s 761 mmHg 66%
21:00 +32°C° 0.4 mm 4 m/s 761 mmHg 67%
22:00 +32°C° 0.4 mm 4 m/s 762 mmHg 69%
23:00 +32°C° 0 mm 4 m/s 761 mmHg 69%

30 Julho, Sexta-feira

Tempo Temperatura Precipitação Vento Pressão Humidade
00:00 +32°C° 0 mm 5 m/s 761 mmHg 69%
01:00 +32°C° 0 mm 5 m/s 761 mmHg 70%
02:00 +32°C° 0 mm 5 m/s 761 mmHg 70%
03:00 +32°C° 0 mm 4 m/s 761 mmHg 71%
04:00 +32°C° 0 mm 4 m/s 760 mmHg 72%
05:00 +32°C° 0 mm 4 m/s 761 mmHg 70%
06:00 +32°C° 0 mm 5 m/s 761 mmHg 69%
07:00 +32°C° 0 mm 5 m/s 761 mmHg 68%
08:00 +32°C° 0 mm 4 m/s 762 mmHg 67%
09:00 +32°C° 0 mm 4 m/s 762 mmHg 67%
10:00 +31°C° 0 mm 3 m/s 762 mmHg 66%
11:00 +31°C° 0.2 mm 3 m/s 762 mmHg 67%
12:00 +31°C° 0.2 mm 3 m/s 762 mmHg 67%
13:00 +31°C° 0.2 mm 3 m/s 762 mmHg 68%
14:00 +31°C° 0.2 mm 3 m/s 762 mmHg 68%
15:00 +31°C° 0.2 mm 3 m/s 762 mmHg 68%
16:00 +31°C° 0.2 mm 3 m/s 761 mmHg 67%
17:00 +31°C° 0 mm 3 m/s 761 mmHg 67%
18:00 +31°C° 0 mm 3 m/s 762 mmHg 67%
19:00 +31°C° 0 mm 3 m/s 762 mmHg 67%
20:00 +31°C° 0.2 mm 3 m/s 762 mmHg 68%
21:00 +31°C° 0.2 mm 3 m/s 762 mmHg 68%
22:00 +31°C° 0.2 mm 3 m/s 763 mmHg 68%
23:00 +31°C° 0 mm 3 m/s 763 mmHg 68%

31 Julho, Sábado

Tempo Temperatura Precipitação Vento Pressão Humidade
00:00 +31°C° 0 mm 3 m/s 762 mmHg 68%
01:00 +31°C° 0 mm 3 m/s 762 mmHg 68%
02:00 +31°C° 0 mm 3 m/s 762 mmHg 68%
03:00 +32°C° 0 mm 4 m/s 762 mmHg 68%
04:00 +32°C° 0 mm 4 m/s 762 mmHg 67%
05:00 +32°C° 0 mm 4 m/s 762 mmHg 68%
06:00 +32°C° 0 mm 4 m/s 762 mmHg 68%
07:00 +32°C° 0 mm 4 m/s 763 mmHg 68%
08:00 +32°C° 0 mm 4 m/s 763 mmHg 68%
09:00 +32°C° 0 mm 4 m/s 763 mmHg 68%
10:00 +31°C° 0 mm 3 m/s 763 mmHg 68%
11:00 +31°C° 0 mm 3 m/s 763 mmHg 67%
12:00 +31°C° 0 mm 3 m/s 763 mmHg 66%
13:00 +31°C° 0 mm 2 m/s 763 mmHg 65%
14:00 +31°C° 0 mm 2 m/s 763 mmHg 64%
15:00 +32°C° 0 mm 2 m/s 762 mmHg 63%
16:00 +32°C° 0 mm 2 m/s 762 mmHg 62%
17:00 +32°C° 0 mm 2 m/s 762 mmHg 63%
18:00 +32°C° 0 mm 2 m/s 762 mmHg 64%
19:00 +32°C° 0 mm 2 m/s 762 mmHg 64%
20:00 +32°C° 0.1 mm 1 m/s 762 mmHg 64%
21:00 +32°C° 0.1 mm 1 m/s 763 mmHg 64%
22:00 +32°C° 0.1 mm 1 m/s 763 mmHg 64%
23:00 +31°C° 0.3 mm 1 m/s 763 mmHg 65%

1 Agosto, Domingo

Tempo Temperatura Precipitação Vento Pressão Humidade
00:00 +31°C° 0.3 mm 2 m/s 763 mmHg 65%
01:00 +31°C° 0.3 mm 2 m/s 762 mmHg 66%
02:00 +31°C° 0 mm 3 m/s 762 mmHg 67%
03:00 +31°C° 0 mm 3 m/s 762 mmHg 68%
04:00 +32°C° 0 mm 4 m/s 762 mmHg 70%
05:00 +32°C° 0 mm 4 m/s 762 mmHg 71%
06:00 +32°C° 0 mm 4 m/s 763 mmHg 72%
07:00 +32°C° 0 mm 5 m/s 763 mmHg 73%
08:00 +32°C° 0 mm 5 m/s 763 mmHg 73%
09:00 +32°C° 0 mm 5 m/s 763 mmHg 73%
10:00 +32°C° 0 mm 5 m/s 763 mmHg 72%
11:00 +32°C° 0.2 mm 5 m/s 763 mmHg 72%
12:00 +32°C° 0.2 mm 5 m/s 763 mmHg 73%
13:00 +32°C° 0.2 mm 5 m/s 763 mmHg 73%
14:00 +32°C° 0 mm 5 m/s 763 mmHg 73%
15:00 +32°C° 0 mm 4 m/s 762 mmHg 72%
16:00 +31°C° 0 mm 3 m/s 762 mmHg 72%
17:00 +32°C° 0.4 mm 4 m/s 762 mmHg 72%
18:00 +32°C° 0.4 mm 4 m/s 762 mmHg 73%
19:00 +32°C° 0.4 mm 4 m/s 762 mmHg 73%
20:00 +31°C° 1 mm 3 m/s 763 mmHg 72%
21:00 +33°C° 1 mm 3 m/s 763 mmHg 71%
22:00 +33°C° 1 mm 3 m/s 763 mmHg 70%
23:00 +33°C° 0.1 mm 3 m/s 763 mmHg 69%
Mostrar mais

Necessitamos do seu Consentimento

A Meteoprog e os seus Fornecedores de Serviços podem armazenar e aceder a dados pessoais como cookies, identificadores do dispositivo ou outras tecnologias semelhantes existentes no seu dispositivo e processar estes dados para personalizar conteúdos e anúncios, assim como funcionalidades nas redes sociais e análise de tráfego.

  • Armazenar e/ou aceder a informações no seu dispositivo

    Os cookies, identificadores do dispositivo ou outras informações podem ser armazenados ou acedidos no seu dispositivo, para os fins acima indicados.

  • Anúncios e conteúdos personalizados, medição de anúncios e conteúdos, dados sobre o público-alvo e desenvolvimento de produtos

    Os anúncios e os conteúdos podem ser personalizados com base num perfil. Podem ser adicionados dados adicionais para uma maior personalização dos anúncios e dos conteúdos. A eficácia dos anúncios e dos conteúdos pode ser medida. Podem ser obtidas informações sobre o público que visualizou os anúncios e os conteúdos. Estes dados podem ser usados para desenvolver ou melhorar sistemas, softwares ou a experiência do utilizador.

Ao clicar em "Eu concordo”, permitirá o uso de cookies, identificadores do dispositivo e web beacons mencionados ou outras tecnologias semelhantes. As configurações do navegador do seu dispositivo podem ser alteradas.

Para certos fins, podem ser invocados interesses legítimos ao invés de consentimento. Pode ler mais informação sobre este assunto na nossa Política de Privacidade e Cookies.